This demonstration page uses our WeatherBlox Daily Observations layout. Learn more.

Left ArrowRight Arrow

39.12711, -84.51439

Hourly Observations for May 9, 2018

Temp ( °F °C ) Dew Point ( °F °C ) Humidity (%) Winds ( mph kmh ) Pressure ( in mb ) Visibility ( mi km ) Precip ( " mm )
3:53 am 03:53 Mostly Cloudy 55 12.8 55 12.8 100 100 Calm 30.04 1017 9 14 0.00 0.00
4:53 am 04:53 Partly Cloudy with Mist and Fog 54 12.2 54 12.2 100 100 Calm 30.03 1017 3 4 0.00 0.00
5:02 am 05:02 Mostly Cloudy with Mist and Fog 54 12.2 54 12.2 100 100 Calm 30.03 1017 2 3 0.00 0.00
5:06 am 05:06 Mostly Cloudy with Mist and Fog 54 12.2 54 12.2 100 100 Calm 30.03 1017 3 5 0.00 0.00
5:41 am 05:41 Mostly Clear with Mist and Fog 53 11.7 53 11.7 100 100 Calm 30.03 1017 2 3 0.00 0.00
5:49 am 05:49 Mostly Clear with Mist and Fog 54 12 54 12 100 100 Calm 30.03 1017 3 5 0.00 0.00
5:53 am 05:53 Clear with Mist and Fog 53 11.7 53 11.7 100 100 Calm 30.03 1017 4 6 0.00 0.00
6:21 am 06:21 Clear with Mist and Fog 53 11.7 53 11.7 100 100 Calm 30.06 1018 2 3 0.00 0.00
6:24 am 06:24 Clear with Mist and Fog 53 11.7 53 11.7 100 100 Calm 30.06 1018 1 1 0.00 0.00
6:34 am 06:34 Sunny with Fog 52 11.1 52 11.1 100 100 Calm 30.06 1018 0 0 0.00 0.00
6:45 am 06:45 Sunny with Mist and Fog 52 11.1 52 11.1 100 100 Calm 30.06 1018 1 2 0.00 0.00
6:53 am 06:53 Sunny 52 11.1 52 11.1 100 100 Calm 30.05 1018 8 13 0.00 0.00
7:18 am 07:18 Sunny with Fog 53 11.7 53 11.7 100 100 Calm 30.06 1018 8 13 0.00 0.00
7:53 am 07:53 Sunny 56 13.3 56 13.3 100 100 Calm 30.05 1018 8 13 0.00 0.00
8:53 am 08:53 Sunny 62 16.7 58 14.4 86 86 S 3 6 30.04 1017 10 16 0.00 0.00
9:53 am 09:53 Sunny 69 20.6 59 15 70 70 SSW 6 9 30.02 1017 10 16 0.00 0.00
10:53 am 10:53 Sunny 75 23.9 60 15.6 60 60 S 9 15 30.01 1016 10 16 0.00 0.00
11:53 am 11:53 Mostly Cloudy 78 25.6 58 14.4 50 50 SSW 14 22 30.01 1016 10 16 0.00 0.00
12:53 pm 12:53 Mostly Cloudy 79 26.1 57 13.9 47 47 S 14 22 29.98 1015 10 16 0.00 0.00
1:53 pm 13:53 Partly Cloudy 81 27.2 58 14.4 45 45 S 15 24 29.96 1015 10 16 0.00 0.00
2:53 pm 14:53 Cloudy with Light Rain 74 23.3 57 13.9 56 56 SW 17 28 29.95 1014 10 16 0.00 0.03
3:13 pm 15:13 Cloudy with Nearby Thunderstorms 72 22.2 61 16.1 68 68 SSW 17 28 29.91 1013 10 16 0.01 0.25
3:28 pm 15:28 Mostly Cloudy 72 22.2 61 16.1 68 68 S 17 28 29.91 1013 10 16 0.01 0.25
3:53 pm 15:53 Sunny 72 22.2 62 16.7 71 71 S 10 17 29.93 1013 10 16 0.01 0.25
4:53 pm 16:53 Mostly Sunny 75 23.9 62 16.7 64 64 S 8 13 29.90 1012 10 16 0.00 0.00
5:53 pm 17:53 Sunny 79 26.1 63 17.2 58 58 S 14 22 29.88 1012 10 16 0.00 0.00
6:53 pm 18:53 Mostly Cloudy with Nearby Thunderstorms 73 22.8 62 16.7 69 69 SSW 15 24 29.88 1012 7 11 0.00 0.03
7:18 pm 19:18 Cloudy with Light Rain 71 21.7 63 17.2 76 76 S 9 15 29.85 1011 10 16 0.01 0.25
7:53 pm 19:53 Sunny 70 21.1 64 17.8 82 82 SSW 7 11 29.85 1011 10 16 0.01 0.25
8:53 pm 20:53 Clear 70 21.1 63 17.2 79 79 SSW 3 6 29.84 1011 10 16 0.00 0.00
9:53 pm 21:53 Clear 72 22.2 61 16.1 68 68 S 8 13 29.84 1011 10 16 0.00 0.00
10:53 pm 22:53 Mostly Clear 70 21.1 61 16.1 73 73 SSW 9 15 29.85 1011 10 16 0.00 0.00
11:53 pm 23:53 Clear 71 21.7 61 16.1 71 71 SSW 12 19 29.84 1011 10 16 0.00 0.00

Powered by AerisWeather